TimeEST,TemperatureF,Dew PointF,Humidity,Sea Level PressureIn,VisibilityMPH,Wind Direction,Wind SpeedMPH,Gust SpeedMPH,PrecipitationIn,Events,Conditions,WindDirDegrees,DateUTC
12:53 AM,75.0,64.9,71,30.07,10.0,ENE,5.8,-,N/A,,Partly Cloudy,70,2012-11-14 05:53:00
1:53 AM,75.9,64.9,69,30.06,10.0,ENE,8.1,-,N/A,,Partly Cloudy,60,2012-11-14 06:53:00
2:53 AM,71.1,64.9,81,30.05,10.0,NNW,4.6,-,N/A,,Partly Cloudy,340,2012-11-14 07:53:00
3:53 AM,71.1,64.0,78,30.05,10.0,NNW,3.5,-,N/A,,Partly Cloudy,330,2012-11-14 08:53:00
4:53 AM,69.1,64.9,87,30.05,10.0,NNW,3.5,-,N/A,,Scattered Clouds,330,2012-11-14 09:53:00
5:53 AM,75.0,64.9,71,30.05,10.0,East,6.9,-,N/A,,Scattered Clouds,80,2012-11-14 10:53:00
6:53 AM,71.1,64.9,81,30.07,10.0,NW,4.6,-,N/A,,Scattered Clouds,310,2012-11-14 11:53:00
7:53 AM,77.0,64.0,64,30.09,10.0,ENE,11.5,-,N/A,,Partly Cloudy,70,2012-11-14 12:53:00
8:53 AM,79.0,64.9,62,30.11,10.0,ENE,10.4,-,N/A,,Mostly Cloudy,70,2012-11-14 13:53:00
9:53 AM,79.0,64.9,62,30.11,10.0,ENE,11.5,-,N/A,,Partly Cloudy,70,2012-11-14 14:53:00
10:53 AM,80.1,66.0,62,30.09,10.0,ENE,13.8,-,N/A,,Partly Cloudy,70,2012-11-14 15:53:00
11:53 AM,81.0,66.0,60,30.08,10.0,East,12.7,-,N/A,,Partly Cloudy,90,2012-11-14 16:53:00
12:53 PM,81.0,64.9,58,30.07,10.0,East,15.0,-,N/A,,Mostly Cloudy,80,2012-11-14 17:53:00
1:53 PM,81.0,64.0,56,30.06,10.0,East,10.4,-,N/A,,Partly Cloudy,80,2012-11-14 18:53:00
2:53 PM,80.1,64.0,58,30.05,10.0,ENE,13.8,-,N/A,,Mostly Cloudy,60,2012-11-14 19:53:00
3:53 PM,79.0,64.9,62,30.05,10.0,ENE,12.7,-,N/A,,Scattered Clouds,70,2012-11-14 20:53:00
4:53 PM,78.1,64.0,62,30.05,10.0,ENE,10.4,-,N/A,,Scattered Clouds,60,2012-11-14 21:53:00
5:53 PM,77.0,63.0,62,30.06,10.0,ENE,9.2,-,N/A,,Scattered Clouds,70,2012-11-14 22:53:00
6:53 PM,77.0,64.0,64,30.07,10.0,East,8.1,-,N/A,,Scattered Clouds,80,2012-11-14 23:53:00
7:53 PM,75.9,64.9,69,30.08,10.0,ENE,9.2,-,N/A,,Partly Cloudy,70,2012-11-15 00:53:00
8:53 PM,75.9,64.9,69,30.09,10.0,ENE,10.4,-,N/A,,Scattered Clouds,70,2012-11-15 01:53:00
9:53 PM,73.9,66.0,76,30.09,10.0,ESE,6.9,-,N/A,,Scattered Clouds,110,2012-11-15 02:53:00
10:14 PM,75.2,66.2,73,30.09,10.0,East,12.7,-,N/A,,Mostly Cloudy,100,2012-11-15 03:14:00
10:21 PM,75.2,66.2,73,30.09,10.0,East,11.5,-,N/A,,Mostly Cloudy,100,2012-11-15 03:21:00
10:53 PM,75.0,64.9,71,30.09,10.0,East,11.5,-,N/A,,Mostly Cloudy,100,2012-11-15 03:53:00
11:15 PM,71.6,66.2,83,30.09,6.0,SE,12.7,-,0.04,Rain,Light Rain,130,2012-11-15 04:15:00
11:43 PM,71.6,69.8,94,30.09,9.0,SSW,5.8,-,0.05,Rain-Thunderstorm,Light Thunderstorms and Rain,200,2012-11-15 04:43:00
11:53 PM,71.1,69.1,93,30.08,9.0,Variable,3.5,-,0.05,Thunderstorm,Thunderstorm,0,2012-11-15 04:53:00